Brescia Airport

Jump to: basic info | weather | frequencies | runways | comments

Related pages: nearby airports | nearby navaids | notams | map

Basic information (top)

Codes: VBS LIPO
Location: lon 45.428902, lat 10.330600, elev 355 ft / 108 m msl
Status: medium_airport
Scheduled airline service: yes
Links: Wikipedia Mobile

Weather (top)

Current conditions (rec'd 2015/04/27 05:50Z):

LIPO 270550Z 10008KT 9999 -RA SCT025 BKN065 14/13 Q1007

Airport forecast (rec'd 2015/04/27 06:24Z):

TAF LIPO 270500Z 2706/2806 09010KT 7000 RA SCT020 BKN070 
      BECMG 2722/2724 VRB05KT NSW

Frequencies (top)

Verify before use: may be inaccurate or out of date.

APP: 124.45 MHz (GARDA APP)
TWR: 119.4 MHz (TWR)

Runways (top)

14/32: 9,810 x 148 ft (2,990 x 45 m) — paved — lighted — threshold 14 displaced 984 ft (300 m) — threshold 32 displaced 640 ft (195 m)

Latest comments (top)

No comments yet for Brescia Airport

More... (top)

See also NOTAMs and nearby airports and navaids, or visit the Brescia Airport page at the main OurAirports website..